User: anonymous   Login
Location: Oshawa
(43.9000°N, 78.8670°W)
Time: 08:07:02
(UTC-04:00)
Language:

Cosmos 1953 Rocket - Orbit

View from above orbital plane
View from above orbital plane
View from above satellite
View from above satellite

Ground track
Ground track

The orbit data is extracted from the following two-line orbital elements,

1 19211U 88050B   17172.67598361 +.00000085 +00000-0 +74057-5 0  9999
2 19211 082.5255 198.2226 0023464 101.9417 037.1269 14.82964311546377
Epoch (UTC): 21 June 2017 16:13:24
Eccentricity: 0.0023464
inclination: 82.5255°
perigee height: 603 km
apogee height: 636 km
right ascension of ascending node: 198.2226°
argument of perigee: 101.9417°
revolutions per day: 14.82964311
mean anomaly at epoch: 37.1269°
orbit number at epoch: 54637

The dashed part of the orbit path shows where the satellite is in the earth's shadow,  

DLR